User: anonymous   Login
Location: Codford Saint Peter
(51.1597°N, 2.0531°W)
Time: 12:06:40
(UTC+00:00)
Language:

Cosmos 2150 Rocket - Orbit

View from above orbital plane
View from above orbital plane
View from above satellite
View from above satellite

Ground track
Ground track

The orbit data is extracted from the following two-line orbital elements,

1 21419U 91041B   20329.82167027 +.00000159 +00000-0 +65585-4 0  9999
2 21419 074.0378 160.9173 0040360 142.5114 217.8865 14.33972690540321
Epoch (UTC): 24 November 2020 19:43:12
Eccentricity: 0.0040360
inclination: 74.0378°
perigee height: 749 km
apogee height: 807 km
right ascension of ascending node: 160.9173°
argument of perigee: 142.5114°
revolutions per day: 14.33972690
mean anomaly at epoch: 217.8865°
orbit number at epoch: 54032

The dashed part of the orbit path shows where the satellite is in the earth's shadow,  

DLR